Yuma MCAS, AZ

3:35 AM MST on December 08, 2019 (GMT -0700)
Yuma Marine Corps Air Station

Weather History for KNYL - October, 2019

Change the Weather History Date:

Tuesday, October 22, 2019

  Actual Average Record
Temperature  
Mean Temperature 81 °F 75 °F  
Max Temperature 93 °F 88 °F 103 °F (2003)
Min Temperature 69 °F 63 °F 41 °F (1906)
Degree Days  
Heating Degree Days 0 0  
Month to date heating degree days 0 0  
Since 1 July heating degree days 0 0  
Cooling Degree Days 16 10  
Month to date cooling degree days 295 312  
Year to date cooling degree days 4286 4486  
Growing Degree Days 31 (Base 50)    
Moisture  
Dew Point 27 °F    
Average Humidity 16    
Maximum Humidity 23    
Minimum Humidity 8    
Precipitation  
Precipitation 0.00 in 0.01 in 0.51 in (2004)
Month to date precipitation 0.00 0.16  
Year to date precipitation 1.49 2.78  
Sea Level Pressure  
Sea Level Pressure 29.99 in    
Wind  
Wind Speed 7 mph (NNW)    
Max Wind Speed 16 mph    
Max Gust Speed 20 mph    
Visibility 8 miles    
Events      
T = Trace of Precipitation, MM = Missing Value Source: NWS Daily Summary

Daily Weather History Graph

Daily Weather History Graph

Search for Another Location

Airport or City:

Astronomy

Oct. 22, 2019 Rise Set
Actual Time 6:47 AM MST 5:57 PM MST
Civil Twilight 6:22 AM MST 6:22 PM MST
Nautical Twilight 5:53 AM MST 6:51 PM MST
Astronomical Twilight 5:25 AM MST 7:19 PM MST
Moon 12:29 AM MST (10/22) 2:45 PM MST (10/22)
Length of Visible Light 12h 00m
Length of Day
11h 09m
Last Quarter, 36% of the Moon is Illuminated
Oct 22
Last Quarter
Oct 27
New
Nov 4
First Quarter
Nov 12
Full
Nov 19
Last Quarter

Hourly Weather History & Observations

Time (MST) Temp. Dew Point Humidity Pressure Visibility Wind Dir Wind Speed Gust Speed Precip Events Conditions
12:57 AM 71.1 °F 30.9 °F 23% 30.02 in 10.0 mi WNW 8.1 mph - N/A   Clear
1:57 AM 75.0 °F 26.1 °F 16% 30.02 in 10.0 mi NNW 10.4 mph - N/A   Clear
2:57 AM 73.9 °F 25.0 °F 16% 30.02 in 10.0 mi North 9.2 mph - N/A   Clear
3:57 AM 73.0 °F 23.0 °F 15% 30.01 in 10.0 mi North 10.4 mph - N/A   Clear
4:57 AM 71.1 °F 24.1 °F 17% 30.02 in 10.0 mi North 11.5 mph - N/A   Clear
5:57 AM 72.0 °F 23.0 °F 16% 30.03 in 10.0 mi North 10.4 mph - N/A   Clear
6:57 AM 72.0 °F 23.0 °F 16% 30.04 in 7.0 mi NNE 12.7 mph - N/A   Clear
7:57 AM 71.1 °F 27.0 °F 19% 30.07 in 10.0 mi West 3.5 mph - N/A   Clear
8:57 AM 77.0 °F 27.0 °F 16% 30.08 in 7.0 mi Calm Calm - N/A   Clear
9:57 AM 82.0 °F 28.9 °F 14% 30.08 in 7.0 mi North 5.8 mph - N/A   Clear
10:57 AM 87.1 °F 23.0 °F 10% 30.06 in 7.0 mi NNE 12.7 mph - N/A   Clear
11:57 AM 89.1 °F 23.0 °F 9% 30.05 in 7.0 mi NNE 8.1 mph - N/A   Clear
12:57 PM 90.0 °F 23.0 °F 9% 30.01 in 7.0 mi Variable 3.5 mph - N/A   Clear
1:57 PM 91.9 °F 24.1 °F 9% 29.98 in 7.0 mi North 6.9 mph - N/A   Clear
2:57 PM 91.9 °F 23.0 °F 8% 29.96 in 7.0 mi NNW 6.9 mph - N/A   Clear
3:57 PM 91.9 °F 25.0 °F 9% 29.94 in 7.0 mi NNW 6.9 mph - N/A   Clear
4:57 PM 91.0 °F 28.0 °F 10% 29.93 in 7.0 mi NNW 10.4 mph - N/A   Clear
5:57 PM 86.0 °F 28.9 °F 13% 29.91 in 7.0 mi North 5.8 mph - N/A   Clear
6:57 PM 84.0 °F 28.0 °F 13% 29.92 in 7.0 mi North 3.5 mph - N/A   Clear
7:57 PM 79.0 °F 32.0 °F 18% 29.93 in 7.0 mi WNW 5.8 mph - N/A   Clear
8:57 PM 79.0 °F 32.0 °F 18% 29.92 in 7.0 mi NW 6.9 mph - N/A   Clear
9:57 PM 78.1 °F 30.9 °F 18% 29.92 in 7.0 mi NW 5.8 mph - N/A   Clear
10:57 PM 73.9 °F 33.1 °F 22% 29.91 in 7.0 mi ENE 4.6 mph - N/A   Clear
11:57 PM 70.0 °F 35.1 °F 28% 29.91 in 10.0 mi South 3.5 mph - N/A   Clear